Location: Caltech
(34.1382°N, 118.1253°W)
Time: 10:57:35
(UTC-07:00)

CZ-4B DEB - Visible Passes

Search period start: 20 October 2014 00:00
Search period end: 30 October 2014 00:00
Orbit: 844 x 863 km, 98.8° (Epoch: 19 October)

Date Brightness Start Highest point End Pass type
(mag) Time Alt. Az. Time Alt. Az. Time Alt. Az.
20 Oct 7.1 03:14:32 10° NE 03:14:51 11° NE 03:14:51 11° NE visible
20 Oct 5.3 04:53:56 10° N 04:56:55 30° NNW 04:56:55 30° NNW visible
21 Oct 5.4 04:42:53 10° N 04:45:41 30° N 04:45:41 30° N visible
22 Oct 5.6 04:31:53 10° N 04:34:26 29° N 04:34:26 29° N visible
23 Oct 5.8 04:20:56 10° NNE 04:23:12 26° NNE 04:23:12 26° NNE visible
23 Oct 6.1 06:04:47 10° NW 06:05:15 11° NW 06:05:15 11° NW visible
24 Oct 6.1 04:10:02 10° NNE 04:11:57 22° NNE 04:11:57 22° NNE visible
24 Oct 6.0 05:52:45 10° NNW 05:54:01 13° NW 05:54:01 13° NW visible
25 Oct 6.4 03:59:11 10° NNE 04:00:43 19° NNE 04:00:43 19° NNE visible
25 Oct 5.9 05:41:11 10° NNW 05:42:46 15° NW 05:42:46 15° NW visible
26 Oct 6.6 03:48:25 10° NNE 03:49:28 15° NE 03:49:28 15° NE visible
26 Oct 5.9 05:29:47 10° NNW 05:31:31 17° NNW 05:31:31 17° NNW visible
27 Oct 6.9 03:37:43 10° NE 03:38:13 12° NE 03:38:13 12° NE visible
27 Oct 5.9 05:18:31 10° N 05:20:16 18° NNW 05:20:16 18° NNW visible
28 Oct 5.9 05:07:19 10° N 05:09:01 19° NNW 05:09:01 19° NNW visible
29 Oct 6.0 04:56:12 10° N 04:57:46 19° N 04:57:46 19° N visible
